カタログに戻る

COSMOS 2499 DEB

運用中PO
NORAD 60616·DEBRIS·🇷🇺 Russia

打ち上げ May 23, 2014 から Plesetsk Cosmodrome

Loading…

次のパス (今後24時間)

TLE

経年Source: Space-Track

元期: Sep 3, 2026, 07:28 UTC

1 60616U 14028CC  26246.31150221 -.00002617  00000-0 -62858-2 0  9998
2 60616  81.9790 104.7593 0216614  37.0550 324.5305 13.14662813158184

AllMySatでCOSMOS 2499 DEBをリアルタイム追跡

Download on the App Store